Newberry, MI

6:13 AM EDT on May 20, 2018 (GMT -0400)
Luce County

Weather History for KERY - September, 2014

Change the Weather History Date:

Tuesday, September 2, 2014

  Actual Average Record
Temperature  
Mean Temperature 62 °F -  
Max Temperature 72 °F 69 °F 87 °F (1913)
Min Temperature 53 °F 50 °F 29 °F (1976)
Degree Days  
Heating Degree Days 2    
Growing Degree Days 12 (Base 50)    
Moisture  
Dew Point 56 °F    
Average Humidity 84    
Maximum Humidity 99    
Minimum Humidity 54    
Precipitation  
Precipitation 0.06 in - - ()
Sea Level Pressure  
Sea Level Pressure 29.80 in    
Wind  
Wind Speed 7 mph (WSW)    
Max Wind Speed 12 mph    
Max Gust Speed 23 mph    
Visibility 10 miles    
Events Rain    
Averages and records for this station are not official NWS values.
T = Trace of Precipitation, MM = Missing Value Source: NWS Daily Summary

Daily Weather History Graph

Daily Weather History Graph

Search for Another Location

Airport or City:

Astronomy

Sep. 02, 2014 Rise Set
Actual Time 7:03 AM EDT 8:18 PM EDT
Civil Twilight 6:32 AM EDT 8:49 PM EDT
Nautical Twilight 5:54 AM EDT 9:26 PM EDT
Astronomical Twilight 5:15 AM EDT 10:06 PM EDT
Moon 3:11 PM EDT (9/2) No Moon Set
Length of Visible Light 14h 17m
Length of Day
13h 15m
First Quarter, 52% of the Moon is Illuminated
Sep 2
First Quarter
Sep 8
Full
Sep 15
Last Quarter
Sep 24
New
Oct 1
First Quarter

Hourly Weather History & Observations

Time (EDT) Temp. Dew Point Humidity Pressure Visibility Wind Dir Wind Speed Gust Speed Precip Events Conditions
12:14 AM 57.6 °F 57.4 °F 99% 29.73 in 10.0 mi SW 4.6 mph - N/A   Mostly Cloudy
12:34 AM 58.1 °F 57.7 °F 99% 29.72 in 10.0 mi SW 3.5 mph - N/A   Mostly Cloudy
12:55 AM 58.1 °F 57.6 °F 98% 29.73 in 10.0 mi SSW 8.1 mph 16.1 mph N/A   Scattered Clouds
1:14 AM 58.5 °F 57.6 °F 97% 29.73 in 10.0 mi SW 5.8 mph - N/A   Scattered Clouds
1:34 AM 57.7 °F 57.0 °F 97% 29.73 in 10.0 mi SSW 6.9 mph - N/A   Clear
1:54 AM 57.2 °F 56.7 °F 98% 29.73 in 10.0 mi SSW 8.1 mph - N/A   Clear
2:14 AM 58.3 °F 57.4 °F 97% 29.73 in 10.0 mi SW 8.1 mph - N/A   Clear
2:34 AM 58.1 °F 57.2 °F 97% 29.74 in 10.0 mi SW 6.9 mph - N/A   Clear
2:54 AM 57.6 °F 56.8 °F 97% 29.75 in 10.0 mi SW 8.1 mph - N/A   Scattered Clouds
3:14 AM 57.4 °F 56.5 °F 97% 29.74 in 10.0 mi WSW 8.1 mph - N/A   Scattered Clouds
3:34 AM 57.2 °F 56.3 °F 97% 29.75 in 10.0 mi WSW 6.9 mph - N/A   Clear
3:54 AM 57.2 °F 56.1 °F 96% 29.74 in 10.0 mi WSW 6.9 mph - N/A   Clear
4:14 AM 56.5 °F 55.6 °F 97% 29.74 in 10.0 mi SW 4.6 mph - N/A   Clear
4:34 AM 55.2 °F 54.7 °F 98% 29.74 in 10.0 mi WSW 8.1 mph - N/A   Clear
4:54 AM 55.9 °F 55.0 °F 97% 29.74 in 10.0 mi WSW 8.1 mph - N/A   Clear
5:15 AM 55.4 °F 54.5 °F 97% 29.75 in 10.0 mi WSW 8.1 mph - N/A   Scattered Clouds
5:34 AM 57.0 °F 55.8 °F 96% 29.76 in 10.0 mi WSW 8.1 mph - N/A   Mostly Cloudy
5:54 AM 56.5 °F 55.4 °F 96% 29.77 in 10.0 mi WSW 8.1 mph - N/A   Scattered Clouds
6:15 AM 56.5 °F 55.4 °F 96% 29.77 in 10.0 mi West 8.1 mph - N/A   Clear
6:34 AM 55.8 °F 54.9 °F 97% 29.78 in 10.0 mi WSW 8.1 mph - N/A   Clear
6:54 AM 55.4 °F 54.7 °F 97% 29.78 in 10.0 mi WSW 10.4 mph - N/A   Clear
7:14 AM 54.1 °F 53.2 °F 97% 29.78 in 10.0 mi West 8.1 mph - N/A   Clear
7:34 AM 54.9 °F 54.1 °F 97% 29.78 in 10.0 mi WSW 5.8 mph - N/A   Clear
7:54 AM 55.4 °F 54.9 °F 98% 29.79 in 10.0 mi WSW 5.8 mph - N/A   Clear
8:14 AM 57.2 °F 55.8 °F 95% 29.79 in 10.0 mi WSW 8.1 mph - N/A   Scattered Clouds
8:34 AM 59.0 °F 56.7 °F 92% 29.80 in 10.0 mi WSW 9.2 mph - N/A   Mostly Cloudy
8:54 AM 59.9 °F 56.8 °F 90% 29.79 in 10.0 mi West 10.4 mph 17.3 mph N/A   Scattered Clouds
9:14 AM 60.8 °F 57.2 °F 88% 29.79 in 10.0 mi West 11.5 mph - N/A   Clear
9:34 AM 62.4 °F 57.7 °F 85% 29.81 in 10.0 mi West 11.5 mph 16.1 mph N/A   Clear
9:55 AM 63.7 °F 58.3 °F 83% 29.81 in 10.0 mi West 8.1 mph 16.1 mph N/A   Clear
10:14 AM 65.3 °F 58.6 °F 79% 29.82 in 10.0 mi WSW 6.9 mph - N/A   Clear
10:34 AM 65.7 °F 58.5 °F 78% 29.82 in 7.0 mi West 11.5 mph 18.4 mph N/A   Clear
10:54 AM 66.7 °F 58.5 °F 75% 29.82 in 10.0 mi West 6.9 mph 18.4 mph N/A   Clear
11:14 AM 67.6 °F 57.7 °F 71% 29.82 in 10.0 mi West 10.4 mph 19.6 mph N/A   Clear
11:34 AM 69.1 °F 57.7 °F 67% 29.82 in 10.0 mi West 8.1 mph 19.6 mph N/A   Clear
11:54 AM 69.4 °F 56.3 °F 63% 29.82 in 10.0 mi WSW 9.2 mph 23.0 mph N/A   Clear
12:14 PM 70.3 °F 56.3 °F 61% 29.82 in 10.0 mi WSW 11.5 mph 23.0 mph N/A   Clear
12:34 PM 70.5 °F 56.3 °F 61% 29.82 in 10.0 mi West 9.2 mph 19.6 mph N/A   Clear
12:54 PM 70.7 °F 55.6 °F 59% 29.82 in 10.0 mi West 9.2 mph 18.4 mph N/A   Clear
1:14 PM 70.7 °F 56.1 °F 60% 29.81 in 10.0 mi WSW 8.1 mph 20.7 mph N/A   Clear
1:35 PM 71.6 °F 55.9 °F 58% 29.81 in 10.0 mi WSW 8.1 mph 16.1 mph N/A   Clear
1:54 PM 71.6 °F 55.6 °F 57% 29.81 in 10.0 mi WSW 9.2 mph 20.7 mph N/A   Scattered Clouds
2:14 PM 71.4 °F 55.2 °F 57% 29.81 in 7.0 mi West 9.2 mph - N/A   Scattered Clouds
2:34 PM 71.1 °F 55.2 °F 57% 29.81 in 7.0 mi WSW 6.9 mph 20.7 mph N/A   Scattered Clouds
2:54 PM 70.3 °F 54.3 °F 57% 29.81 in 10.0 mi WSW 8.1 mph - N/A   Scattered Clouds
3:14 PM 70.0 °F 55.4 °F 60% 29.81 in 10.0 mi SW 6.9 mph - N/A   Mostly Cloudy
3:34 PM 70.0 °F 55.4 °F 60% 29.81 in 10.0 mi SW 6.9 mph - N/A   Overcast
3:54 PM 71.4 °F 54.7 °F 55% 29.81 in 10.0 mi WSW 8.1 mph - N/A   Overcast
4:15 PM 72.5 °F 57.9 °F 60% 29.81 in 7.0 mi SSW 9.2 mph - N/A   Scattered Clouds
4:34 PM 72.9 °F 56.3 °F 56% 29.80 in 7.0 mi SW 8.1 mph - N/A   Scattered Clouds
4:54 PM 72.9 °F 55.4 °F 54% 29.80 in 10.0 mi SW 8.1 mph - N/A   Scattered Clouds
5:14 PM 69.3 °F 54.7 °F 60% 29.81 in 7.0 mi SW 8.1 mph - N/A   Clear
5:34 PM 67.5 °F 55.8 °F 66% 29.82 in 7.0 mi Calm Calm - N/A   Scattered Clouds
5:54 PM 62.2 °F 58.6 °F 88% 29.83 in 3.0 mi West 8.1 mph 23.0 mph 0.02 in Rain Rain
6:14 PM 62.6 °F 60.1 °F 91% 29.83 in 5.0 mi Calm Calm - 0.04 in Rain Light Rain
6:55 PM 64.4 °F 60.1 °F 86% 29.83 in 10.0 mi WNW 4.6 mph - 0.04 in   Scattered Clouds
7:14 PM 63.7 °F 59.2 °F 85% 29.83 in 10.0 mi SW 3.5 mph - N/A   Clear
7:34 PM 62.8 °F 59.9 °F 90% 29.84 in 10.0 mi SW 3.5 mph - N/A   Clear
7:55 PM 60.3 °F 57.2 °F 90% 29.84 in 10.0 mi SW 4.6 mph - N/A   Clear
8:14 PM 58.3 °F 56.7 °F 94% 29.84 in 10.0 mi SW 3.5 mph - N/A   Clear
8:34 PM 57.6 °F 56.5 °F 96% 29.84 in 10.0 mi SW 3.5 mph - N/A   Clear
8:54 PM 56.8 °F 55.9 °F 97% 29.86 in 10.0 mi WSW 5.8 mph - N/A   Clear
9:14 PM 56.5 °F 55.8 °F 97% 29.86 in 10.0 mi WSW 6.9 mph - N/A   Clear
9:34 PM 55.9 °F 55.4 °F 98% 29.86 in 10.0 mi SW 5.8 mph - N/A   Clear
9:54 PM 55.4 °F 54.5 °F 97% 29.86 in 10.0 mi SW 6.9 mph - N/A   Clear
10:14 PM 54.9 °F 53.8 °F 96% 29.86 in 10.0 mi SW 9.2 mph - N/A   Clear
10:34 PM 54.5 °F 53.2 °F 96% 29.86 in 10.0 mi WSW 6.9 mph - N/A   Clear
10:54 PM 54.0 °F 52.9 °F 96% 29.86 in 10.0 mi WSW 10.4 mph - N/A   Clear
11:14 PM 53.6 °F 52.7 °F 97% 29.86 in 10.0 mi WSW 11.5 mph - N/A   Clear
11:34 PM 54.0 °F 53.1 °F 97% 29.86 in 10.0 mi WSW 8.1 mph - N/A   Clear
11:54 PM 53.6 °F 52.9 °F 97% 29.86 in 10.0 mi WSW 11.5 mph - N/A   Clear